JAL8671 RJGG-RCTP

Flight info

Callsign JAL8671
Flight time 2h 40m
Altitude 36000
Route KEC Y24 KOSHI Y50 IGMON A1 DRAKE DRAKE1A
Aircraft B738/M-SDE2E3FGHIRWXY/LB1

Departure

Time 2026-05-07 03:39
Airport Chubu Centrair International Airport (RJGG)

Arrival

Time 2026-05-07 06:19
Airport Taiwan Taoyuan International Airport (RCTP)
Time Latitude Longitude Altitude Speed Heading
2026-05-07 03:21 34.85914 136.81054 27 ft 0 kts 169°
2026-05-07 03:28 34.85917 136.81053 28 ft 2 kts 169°
2026-05-07 03:28 34.85930 136.81050 28 ft 2 kts 169°
2026-05-07 03:29 34.85944 136.81047 28 ft 2 kts 169°
2026-05-07 03:29 34.85958 136.81044 28 ft 2 kts 169°
2026-05-07 03:29 34.85971 136.81041 28 ft 2 kts 172°
2026-05-07 03:29 34.85984 136.81039 28 ft 2 kts 181°
2026-05-07 03:30 34.85992 136.81040 28 ft 1 kts 203°
2026-05-07 03:30 34.85998 136.81043 28 ft 1 kts 233°
2026-05-07 03:30 34.86002 136.81050 28 ft 1 kts 250°
2026-05-07 03:30 34.86004 136.81057 28 ft 1 kts 256°
2026-05-07 03:31 34.86005 136.81063 28 ft 0 kts 258°
2026-05-07 03:33 34.86005 136.81060 27 ft 1 kts 258°
2026-05-07 03:33 34.86003 136.81053 27 ft 1 kts 258°
2026-05-07 03:33 34.86001 136.81040 27 ft 2 kts 258°
2026-05-07 03:34 34.85996 136.81009 27 ft 5 kts 258°
2026-05-07 03:34 34.85981 136.80921 27 ft 10 kts 258°
2026-05-07 03:34 34.86024 136.80852 27 ft 13 kts 346°
2026-05-07 03:34 34.86089 136.80836 27 ft 15 kts 348°
2026-05-07 03:35 34.86203 136.80806 27 ft 18 kts 348°
2026-05-07 03:35 34.86336 136.80772 28 ft 21 kts 349°
2026-05-07 03:35 34.86484 136.80739 28 ft 22 kts 349°
2026-05-07 03:35 34.86638 136.80702 27 ft 22 kts 349°
2026-05-07 03:36 34.86788 136.80666 27 ft 22 kts 348°
2026-05-07 03:36 34.86933 136.80631 27 ft 21 kts 349°
2026-05-07 03:36 34.87074 136.80597 27 ft 20 kts 349°
2026-05-07 03:36 34.87212 136.80564 27 ft 20 kts 349°
2026-05-07 03:37 34.87333 136.80518 27 ft 16 kts 309°
2026-05-07 03:37 34.87319 136.80392 27 ft 15 kts 258°
2026-05-07 03:37 34.87297 136.80259 25 ft 17 kts 258°
2026-05-07 03:37 34.87237 136.80203 27 ft 11 kts 171°
2026-05-07 03:38 34.87223 136.80206 27 ft 1 kts 169°
2026-05-07 03:38 34.87114 136.80232 26 ft 47 kts 169°
2026-05-07 03:38 34.86536 136.80370 24 ft 119 kts 169°
2026-05-07 03:38 34.85524 136.80590 106 ft 169 kts 172°
2026-05-07 03:39 34.84327 136.80837 819 ft 178 kts 174°
2026-05-07 03:39 34.83107 136.80759 1716 ft 174 kts 196°
2026-05-07 03:39 34.81907 136.80310 2309 ft 192 kts 198°
2026-05-07 03:39 34.80530 136.79788 2567 ft 219 kts 198°
2026-05-07 03:40 34.79008 136.79210 2882 ft 236 kts 198°
2026-05-07 03:40 34.77416 136.78608 3436 ft 242 kts 198°
2026-05-07 03:40 34.75779 136.77990 3891 ft 255 kts 198°
2026-05-07 03:40 34.74046 136.77337 4453 ft 265 kts 198°
2026-05-07 03:41 34.72277 136.76672 5352 ft 265 kts 198°
2026-05-07 03:41 34.70519 136.76012 6301 ft 264 kts 199°
2026-05-07 03:41 34.68758 136.75351 7112 ft 266 kts 199°
2026-05-07 03:41 34.66982 136.74684 7913 ft 269 kts 199°
2026-05-07 03:42 34.65183 136.74010 8706 ft 272 kts 199°
2026-05-07 03:42 34.63362 136.73327 9514 ft 275 kts 199°
2026-05-07 03:42 34.61518 136.72636 10274 ft 279 kts 199°
2026-05-07 03:42 34.59592 136.71913 10526 ft 303 kts 199°
2026-05-07 03:43 34.57500 136.71128 10745 ft 328 kts 199°
2026-05-07 03:43 34.55268 136.70327 11051 ft 345 kts 198°
2026-05-07 03:43 34.52929 136.69563 11658 ft 350 kts 197°
2026-05-07 03:43 34.50569 136.68813 12350 ft 352 kts 197°
2026-05-07 03:44 34.48187 136.68057 13031 ft 355 kts 197°
2026-05-07 03:44 34.45782 136.67290 13655 ft 359 kts 197°
2026-05-07 03:44 34.43352 136.66511 14216 ft 363 kts 197°
2026-05-07 03:44 34.40895 136.65720 14744 ft 367 kts 197°
2026-05-07 03:45 34.38411 136.64918 15253 ft 371 kts 197°
2026-05-07 03:45 34.35899 136.64108 15783 ft 375 kts 197°
2026-05-07 03:45 34.33359 136.63289 16270 ft 380 kts 197°
2026-05-07 03:45 34.30796 136.62463 16782 ft 384 kts 197°
2026-05-07 03:46 34.28201 136.61626 17285 ft 388 kts 197°
2026-05-07 03:46 34.25573 136.60780 17780 ft 392 kts 197°
2026-05-07 03:46 34.22926 136.59928 18256 ft 395 kts 197°
2026-05-07 03:46 34.20257 136.59053 18658 ft 399 kts 199°
2026-05-07 03:47 34.17770 136.57599 19049 ft 398 kts 217°
2026-05-07 03:47 34.15646 136.55453 19519 ft 398 kts 223°
2026-05-07 03:47 34.13584 136.53200 19947 ft 401 kts 224°
2026-05-07 03:47 34.11546 136.50943 20342 ft 404 kts 224°
2026-05-07 03:48 34.09460 136.48635 20752 ft 407 kts 224°
2026-05-07 03:48 34.07359 136.46327 21168 ft 409 kts 223°
2026-05-07 03:48 34.05239 136.44014 21568 ft 412 kts 223°
2026-05-07 03:48 34.03099 136.41692 21961 ft 415 kts 223°
2026-05-07 03:49 34.00941 136.39360 22352 ft 418 kts 223°
2026-05-07 03:49 33.98768 136.37018 22733 ft 420 kts 223°
2026-05-07 03:49 33.96581 136.34663 23115 ft 423 kts 223°
2026-05-07 03:49 33.94381 136.32298 23469 ft 425 kts 223°
2026-05-07 03:50 33.92167 136.29918 23793 ft 428 kts 223°
2026-05-07 03:50 33.89946 136.27533 24100 ft 430 kts 223°
2026-05-07 03:50 33.87707 136.25130 24395 ft 432 kts 223°
2026-05-07 03:50 33.85453 136.22712 24689 ft 434 kts 223°
2026-05-07 03:51 33.83192 136.20289 24970 ft 436 kts 223°
2026-05-07 03:51 33.80923 136.17858 25257 ft 439 kts 223°
2026-05-07 03:51 33.78637 136.15412 25541 ft 441 kts 223°
2026-05-07 03:51 33.76341 136.12956 25830 ft 443 kts 223°
2026-05-07 03:52 33.74034 136.10490 26099 ft 445 kts 223°
2026-05-07 03:52 33.71722 136.08022 26372 ft 446 kts 223°
2026-05-07 03:52 33.69395 136.05538 26645 ft 448 kts 223°
2026-05-07 03:52 33.67057 136.03045 26908 ft 450 kts 223°
2026-05-07 03:53 33.64707 136.00541 27155 ft 453 kts 222°
2026-05-07 03:53 33.62346 135.98027 27398 ft 454 kts 222°
2026-05-07 03:53 33.59975 135.95504 27638 ft 456 kts 222°
2026-05-07 03:53 33.57593 135.92972 27885 ft 458 kts 222°
2026-05-07 03:54 33.55234 135.90465 28119 ft 460 kts 222°
2026-05-07 03:54 33.52827 135.87910 28372 ft 461 kts 222°
2026-05-07 03:54 33.50425 135.85361 28706 ft 460 kts 222°
2026-05-07 03:54 33.48037 135.82830 29091 ft 458 kts 222°
2026-05-07 03:55 33.45776 135.80151 29443 ft 457 kts 232°
2026-05-07 03:55 33.44151 135.76878 29746 ft 457 kts 248°
2026-05-07 03:55 33.43186 135.73264 30102 ft 456 kts 254°
2026-05-07 03:55 33.42364 135.69594 30397 ft 456 kts 255°
2026-05-07 03:56 33.41562 135.65921 30694 ft 455 kts 255°
2026-05-07 03:56 33.40747 135.62265 31041 ft 453 kts 254°
2026-05-07 03:56 33.39922 135.58670 31378 ft 452 kts 254°
2026-05-07 03:56 33.39074 135.55051 31681 ft 451 kts 254°
2026-05-07 03:57 33.38218 135.51440 31984 ft 451 kts 254°
2026-05-07 03:57 33.37360 135.47827 32297 ft 449 kts 254°
2026-05-07 03:57 33.36509 135.44242 32606 ft 448 kts 254°
2026-05-07 03:57 33.35625 135.40668 32923 ft 447 kts 253°
2026-05-07 03:58 33.34705 135.37117 33237 ft 446 kts 252°
2026-05-07 03:58 33.33775 135.33584 33569 ft 444 kts 252°
2026-05-07 03:58 33.32846 135.30062 33877 ft 443 kts 253°
2026-05-07 03:58 33.31920 135.26538 34014 ft 446 kts 253°
2026-05-07 03:59 33.30991 135.22987 34011 ft 448 kts 253°
2026-05-07 03:59 33.29148 135.15927 34011 ft 446 kts 253°
2026-05-07 04:00 33.27299 135.08851 34012 ft 442 kts 253°
2026-05-07 04:00 33.25478 135.01901 34014 ft 440 kts 253°
2026-05-07 04:01 33.23700 134.94895 34011 ft 439 kts 254°
2026-05-07 04:01 33.22031 134.87893 34014 ft 438 kts 255°
2026-05-07 04:02 33.20355 134.80895 34004 ft 438 kts 254°
2026-05-07 04:02 33.18679 134.73959 34015 ft 435 kts 254°
2026-05-07 04:03 33.16972 134.66962 34022 ft 441 kts 254°
2026-05-07 04:03 33.15253 134.59935 34010 ft 441 kts 254°
2026-05-07 04:04 33.13521 134.52914 34010 ft 440 kts 254°
2026-05-07 04:04 33.11794 134.45932 34006 ft 438 kts 254°
2026-05-07 04:05 33.10070 134.38970 34005 ft 436 kts 253°
2026-05-07 04:05 33.08355 134.32059 34008 ft 434 kts 254°
2026-05-07 04:06 33.06655 134.25228 34008 ft 431 kts 253°
2026-05-07 04:06 33.04972 134.18390 34004 ft 428 kts 254°
2026-05-07 04:07 33.03332 134.11591 34004 ft 426 kts 254°
2026-05-07 04:07 33.01696 134.04822 33999 ft 424 kts 254°
2026-05-07 04:08 33.00059 133.98086 34005 ft 422 kts 254°
2026-05-07 04:08 32.98423 133.91378 34021 ft 424 kts 253°
2026-05-07 04:09 32.96762 133.84588 34271 ft 428 kts 253°
2026-05-07 04:09 32.95932 133.81197 34620 ft 424 kts 253°
2026-05-07 04:09 32.95108 133.77841 34970 ft 421 kts 253°
2026-05-07 04:09 32.94288 133.74502 35207 ft 420 kts 253°
2026-05-07 04:10 32.93469 133.71169 35382 ft 421 kts 253°
2026-05-07 04:10 32.92655 133.67865 35611 ft 420 kts 253°
2026-05-07 04:10 32.91835 133.64537 35861 ft 418 kts 253°
2026-05-07 04:10 32.91015 133.61211 35994 ft 419 kts 253°
2026-05-07 04:11 32.90190 133.57874 35992 ft 421 kts 253°
2026-05-07 04:11 32.88535 133.51208 35989 ft 418 kts 253°
2026-05-07 04:12 32.86893 133.44623 35996 ft 413 kts 253°
2026-05-07 04:12 32.85269 133.38119 35999 ft 409 kts 253°
2026-05-07 04:13 32.83652 133.31658 36003 ft 406 kts 253°
2026-05-07 04:13 32.82041 133.25234 36001 ft 405 kts 253°
2026-05-07 04:14 32.80425 133.18806 36008 ft 406 kts 252°
2026-05-07 04:14 32.78803 133.12369 36008 ft 407 kts 252°
2026-05-07 04:15 32.77173 133.05914 36008 ft 409 kts 252°
2026-05-07 04:15 32.75438 132.99468 35998 ft 410 kts 247°
2026-05-07 04:16 32.72789 132.93504 36001 ft 411 kts 241°
2026-05-07 04:16 32.69989 132.87583 36002 ft 412 kts 241°
2026-05-07 04:17 32.67197 132.81645 36002 ft 411 kts 241°
2026-05-07 04:17 32.64420 132.75715 35996 ft 410 kts 241°
2026-05-07 04:18 32.61658 132.69812 35994 ft 409 kts 241°
2026-05-07 04:18 32.58903 132.63930 35995 ft 407 kts 241°
2026-05-07 04:19 32.56620 132.59065 35994 ft 405 kts 241°
2026-05-07 04:19 32.53882 132.53238 35994 ft 404 kts 241°
2026-05-07 04:20 32.51155 132.47443 35994 ft 402 kts 241°
2026-05-07 04:20 32.48431 132.41664 35993 ft 401 kts 240°
2026-05-07 04:21 32.44355 132.33033 35997 ft 400 kts 240°
2026-05-07 04:21 32.41631 132.27275 35993 ft 400 kts 240°
2026-05-07 04:22 32.38913 132.21541 36000 ft 400 kts 240°
2026-05-07 04:22 32.36189 132.15801 35992 ft 400 kts 240°
2026-05-07 04:23 32.33460 132.10061 35996 ft 400 kts 240°
2026-05-07 04:23 32.30726 132.04320 35992 ft 401 kts 240°
2026-05-07 04:24 32.28006 131.98616 35992 ft 401 kts 240°
2026-05-07 04:24 32.25267 131.92881 35989 ft 401 kts 240°
2026-05-07 04:25 32.22517 131.87133 35994 ft 401 kts 240°
2026-05-07 04:25 32.19771 131.81402 35989 ft 401 kts 240°
2026-05-07 04:26 32.17020 131.75669 35997 ft 401 kts 240°
2026-05-07 04:26 32.14271 131.69949 35989 ft 401 kts 240°
2026-05-07 04:27 32.11517 131.64227 35998 ft 401 kts 240°
2026-05-07 04:27 32.08760 131.58507 35993 ft 400 kts 240°
2026-05-07 04:28 32.06007 131.52806 35997 ft 399 kts 240°
2026-05-07 04:28 32.03259 131.47123 35993 ft 399 kts 240°
2026-05-07 04:29 32.00523 131.41472 35996 ft 399 kts 240°
2026-05-07 04:29 31.97756 131.35769 35993 ft 398 kts 240°
2026-05-07 04:30 31.95023 131.30142 36002 ft 398 kts 240°
2026-05-07 04:30 31.92256 131.24453 35989 ft 398 kts 240°
2026-05-07 04:31 31.89522 131.18842 35990 ft 397 kts 239°
2026-05-07 04:31 31.86766 131.13194 35998 ft 397 kts 239°
2026-05-07 04:32 31.84007 131.07550 35987 ft 398 kts 239°
2026-05-07 04:32 31.81246 131.01907 35986 ft 398 kts 239°
2026-05-07 04:33 31.78485 130.96275 35991 ft 397 kts 239°
2026-05-07 04:33 31.75725 130.90653 35891 ft 398 kts 242°
2026-05-07 04:34 31.72954 130.85015 35981 ft 404 kts 242°
2026-05-07 04:34 31.70096 130.79208 36005 ft 412 kts 242°
2026-05-07 04:35 31.67192 130.73318 35998 ft 421 kts 242°
2026-05-07 04:35 31.64247 130.67355 35990 ft 423 kts 242°
2026-05-07 04:36 31.61283 130.61365 35991 ft 425 kts 242°
2026-05-07 04:36 31.58311 130.55368 35981 ft 425 kts 242°
2026-05-07 04:37 31.55358 130.49418 35983 ft 424 kts 242°
2026-05-07 04:37 31.52391 130.43450 35974 ft 422 kts 242°
2026-05-07 04:38 31.49441 130.37522 35982 ft 420 kts 242°
2026-05-07 04:38 31.46498 130.31619 35979 ft 418 kts 242°
2026-05-07 04:39 31.43565 130.25745 35982 ft 417 kts 242°
2026-05-07 04:39 31.40644 130.19904 35982 ft 415 kts 241°
2026-05-07 04:40 31.37726 130.14076 35982 ft 414 kts 242°
2026-05-07 04:40 31.34812 130.08265 35979 ft 414 kts 242°
2026-05-07 04:41 31.31890 130.02446 35984 ft 415 kts 242°
2026-05-07 04:41 31.28948 129.96634 35984 ft 417 kts 239°
2026-05-07 04:42 31.25472 129.91179 35984 ft 419 kts 234°
2026-05-07 04:42 31.21832 129.85831 35986 ft 421 kts 234°
2026-05-07 04:43 31.18199 129.80465 35985 ft 422 kts 234°
2026-05-07 04:43 31.14570 129.75063 35979 ft 423 kts 234°
2026-05-07 04:44 31.10941 129.69650 35979 ft 423 kts 234°
2026-05-07 04:44 31.07306 129.64232 35980 ft 423 kts 234°
2026-05-07 04:45 31.03697 129.58863 35980 ft 423 kts 234°
2026-05-07 04:45 31.00073 129.53479 35981 ft 422 kts 234°
2026-05-07 04:46 30.96450 129.48104 35982 ft 421 kts 234°
2026-05-07 04:46 30.92834 129.42747 35981 ft 420 kts 234°
2026-05-07 04:47 30.89231 129.37415 35980 ft 419 kts 235°
2026-05-07 04:47 30.85626 129.32088 35981 ft 418 kts 235°
2026-05-07 04:48 30.82037 129.26789 35984 ft 417 kts 235°
2026-05-07 04:48 30.78452 129.21506 35980 ft 416 kts 235°
2026-05-07 04:49 30.74895 129.16192 35980 ft 415 kts 236°
2026-05-07 04:49 30.71397 129.10850 35980 ft 415 kts 236°
2026-05-07 04:50 30.67923 129.05547 35981 ft 415 kts 236°
2026-05-07 04:50 30.64421 129.00221 35979 ft 415 kts 236°
2026-05-07 04:51 30.60904 128.94886 35979 ft 416 kts 236°
2026-05-07 04:51 30.57379 128.89549 35983 ft 416 kts 236°
2026-05-07 04:52 30.53856 128.84221 35984 ft 416 kts 236°
2026-05-07 04:52 30.50323 128.78886 35983 ft 417 kts 236°
2026-05-07 04:53 30.46792 128.73560 35985 ft 417 kts 236°
2026-05-07 04:53 30.43276 128.68265 35982 ft 417 kts 236°
2026-05-07 04:54 30.39728 128.62930 35980 ft 417 kts 236°
2026-05-07 04:54 30.36179 128.57598 35981 ft 417 kts 236°
2026-05-07 04:55 30.32632 128.52278 35980 ft 417 kts 236°
2026-05-07 04:55 30.29089 128.46969 35980 ft 417 kts 236°
2026-05-07 04:56 30.25564 128.41696 35979 ft 417 kts 236°
2026-05-07 04:56 30.22016 128.36394 35980 ft 416 kts 236°
2026-05-07 04:57 30.18467 128.31099 35983 ft 416 kts 236°
2026-05-07 04:57 30.14923 128.25818 35981 ft 416 kts 236°
2026-05-07 04:58 30.11370 128.20530 35984 ft 416 kts 236°
2026-05-07 04:58 30.07828 128.15265 35983 ft 415 kts 236°
2026-05-07 04:59 30.04286 128.10007 35983 ft 415 kts 236°
2026-05-07 04:59 30.00741 128.04751 35981 ft 415 kts 236°
2026-05-07 05:00 29.97197 127.99503 35979 ft 414 kts 236°
2026-05-07 05:00 29.93672 127.94291 35981 ft 414 kts 236°
2026-05-07 05:01 29.90130 127.89058 35986 ft 414 kts 236°
2026-05-07 05:01 29.86593 127.83840 35983 ft 413 kts 236°
2026-05-07 05:02 29.82905 127.78743 35983 ft 414 kts 233°
2026-05-07 05:02 29.79116 127.73743 35986 ft 414 kts 233°
2026-05-07 05:03 29.75345 127.68735 35986 ft 414 kts 233°
2026-05-07 05:03 29.72224 127.64564 35984 ft 413 kts 233°
2026-05-07 05:04 29.68473 127.59547 35985 ft 413 kts 233°
2026-05-07 05:04 29.64114 127.53722 35990 ft 413 kts 233°
2026-05-07 05:05 29.60970 127.49527 35991 ft 413 kts 233°
2026-05-07 05:05 29.57265 127.44534 35993 ft 412 kts 235°
2026-05-07 05:06 29.53706 127.39379 35987 ft 412 kts 236°
2026-05-07 05:06 29.50172 127.34192 35985 ft 412 kts 236°
2026-05-07 05:07 29.46620 127.29021 35986 ft 413 kts 235°
2026-05-07 05:07 29.43056 127.23864 35985 ft 413 kts 235°
2026-05-07 05:08 29.39480 127.18705 35986 ft 413 kts 235°
2026-05-07 05:08 29.35904 127.13553 35987 ft 413 kts 235°
2026-05-07 05:09 29.32320 127.08395 35991 ft 413 kts 235°
2026-05-07 05:09 29.28736 127.03245 35992 ft 414 kts 235°
2026-05-07 05:10 29.25144 126.98087 35991 ft 414 kts 235°
2026-05-07 05:10 29.21546 126.92929 35990 ft 414 kts 235°
2026-05-07 05:11 29.17944 126.87771 35989 ft 415 kts 235°
2026-05-07 05:11 29.14337 126.82613 35987 ft 415 kts 235°
2026-05-07 05:12 29.10731 126.77462 35986 ft 415 kts 235°
2026-05-07 05:12 29.07141 126.72340 35987 ft 415 kts 235°
2026-05-07 05:13 29.03524 126.67185 35986 ft 416 kts 235°
2026-05-07 05:13 28.99904 126.62031 35989 ft 416 kts 235°
2026-05-07 05:14 28.96279 126.56891 35988 ft 416 kts 234°
2026-05-07 05:14 28.92547 126.51828 35983 ft 417 kts 233°
2026-05-07 05:15 28.88783 126.46789 35986 ft 417 kts 233°
2026-05-07 05:15 28.85025 126.41741 35989 ft 417 kts 233°
2026-05-07 05:16 28.81276 126.36696 35994 ft 417 kts 233°
2026-05-07 05:16 28.77520 126.31642 35987 ft 418 kts 233°
2026-05-07 05:17 28.73763 126.26594 35994 ft 418 kts 233°
2026-05-07 05:17 28.69997 126.21540 35991 ft 418 kts 233°
2026-05-07 05:18 28.66226 126.16484 35991 ft 419 kts 233°
2026-05-07 05:18 28.62487 126.11450 35988 ft 419 kts 234°
2026-05-07 05:19 28.58816 126.06287 35988 ft 419 kts 235°
2026-05-07 05:19 28.55168 126.01106 35988 ft 420 kts 235°
2026-05-07 05:20 28.51506 125.95927 35989 ft 420 kts 235°
2026-05-07 05:20 28.47829 125.90752 35987 ft 421 kts 234°
2026-05-07 05:21 28.42299 125.82989 35994 ft 421 kts 234°
2026-05-07 05:22 28.38636 125.77847 36134 ft 417 kts 231°
2026-05-07 05:22 28.35037 125.72811 35996 ft 406 kts 231°
2026-05-07 05:23 28.31459 125.67813 35988 ft 405 kts 231°
2026-05-07 05:23 28.27906 125.62852 35988 ft 405 kts 232°
2026-05-07 05:24 28.24376 125.57928 35984 ft 405 kts 232°
2026-05-07 05:24 28.20811 125.52960 35992 ft 407 kts 232°
2026-05-07 05:25 28.17233 125.47980 35985 ft 409 kts 232°
2026-05-07 05:25 28.13629 125.42969 35991 ft 411 kts 232°
2026-05-07 05:26 28.09998 125.37928 35982 ft 413 kts 232°
2026-05-07 05:26 28.06356 125.32877 35988 ft 415 kts 232°
2026-05-07 05:27 28.02690 125.27799 35979 ft 417 kts 232°
2026-05-07 05:27 27.99008 125.22704 35987 ft 419 kts 232°
2026-05-07 05:28 27.95318 125.17604 35980 ft 420 kts 232°
2026-05-07 05:28 27.91637 125.12524 35982 ft 420 kts 232°
2026-05-07 05:29 27.87925 125.07406 35978 ft 421 kts 232°
2026-05-07 05:29 27.84206 125.02285 35982 ft 421 kts 232°
2026-05-07 05:30 27.80488 124.97171 35978 ft 422 kts 232°
2026-05-07 05:30 27.76758 124.92047 35983 ft 422 kts 232°
2026-05-07 05:31 27.73023 124.86921 35976 ft 423 kts 233°
2026-05-07 05:31 27.69281 124.81792 35981 ft 423 kts 233°
2026-05-07 05:32 27.65531 124.76657 35973 ft 424 kts 233°
2026-05-07 05:32 27.61791 124.71544 35977 ft 425 kts 233°
2026-05-07 05:33 27.58020 124.66382 35973 ft 426 kts 233°
2026-05-07 05:33 27.54245 124.61212 35981 ft 428 kts 233°
2026-05-07 05:34 27.50455 124.56028 35972 ft 429 kts 233°
2026-05-07 05:34 27.46650 124.50831 35975 ft 430 kts 233°
2026-05-07 05:35 27.42856 124.45654 35976 ft 432 kts 234°
2026-05-07 05:35 27.39027 124.40437 35974 ft 433 kts 234°
2026-05-07 05:36 27.35173 124.35193 35967 ft 435 kts 234°
2026-05-07 05:36 27.31314 124.29946 35972 ft 436 kts 234°
2026-05-07 05:37 27.27441 124.24688 35962 ft 437 kts 234°
2026-05-07 05:37 27.23558 124.19422 35965 ft 438 kts 234°
2026-05-07 05:38 27.19673 124.14159 35963 ft 438 kts 234°
2026-05-07 05:38 27.15776 124.08887 35966 ft 438 kts 234°
2026-05-07 05:39 27.11897 124.03643 35960 ft 439 kts 235°
2026-05-07 05:39 27.07994 123.98384 35962 ft 439 kts 234°
2026-05-07 05:40 27.04049 123.93144 35957 ft 439 kts 234°
2026-05-07 05:40 27.00099 123.87917 35964 ft 440 kts 234°
2026-05-07 05:41 26.96143 123.82680 35956 ft 440 kts 235°
2026-05-07 05:41 26.92185 123.77442 35959 ft 440 kts 235°
2026-05-07 05:42 26.88230 123.72211 35951 ft 440 kts 235°
2026-05-07 05:42 26.84272 123.66985 35885 ft 437 kts 235°
2026-05-07 05:43 26.80377 123.61852 35951 ft 429 kts 235°
2026-05-07 05:43 26.76514 123.56757 35954 ft 429 kts 235°
2026-05-07 05:44 26.72655 123.51675 35958 ft 429 kts 235°
2026-05-07 05:44 26.68809 123.46617 35957 ft 429 kts 235°
2026-05-07 05:45 26.64912 123.41500 35959 ft 430 kts 235°
2026-05-07 05:45 26.61053 123.36433 35960 ft 431 kts 235°
2026-05-07 05:46 26.57159 123.31322 35952 ft 432 kts 235°
2026-05-07 05:46 26.53255 123.26204 35955 ft 433 kts 235°
2026-05-07 05:47 26.49341 123.21079 35950 ft 434 kts 235°
2026-05-07 05:47 26.45418 123.15947 35953 ft 435 kts 235°
2026-05-07 05:48 26.41491 123.10817 35951 ft 435 kts 235°
2026-05-07 05:48 26.37552 123.05676 35955 ft 436 kts 235°
2026-05-07 05:49 26.33606 123.00532 35951 ft 436 kts 235°
2026-05-07 05:49 26.29654 122.95401 35950 ft 437 kts 235°
2026-05-07 05:50 26.25689 122.90269 35946 ft 437 kts 235°
2026-05-07 05:50 26.22393 122.86005 35948 ft 437 kts 234°
2026-05-07 05:51 26.18428 122.80879 35947 ft 436 kts 234°
2026-05-07 05:51 26.14458 122.75752 35947 ft 436 kts 234°
2026-05-07 05:52 26.10494 122.70638 35950 ft 436 kts 234°
2026-05-07 05:52 26.06535 122.65536 35948 ft 436 kts 234°
2026-05-07 05:52 26.04537 122.62961 35538 ft 442 kts 234°
2026-05-07 05:53 26.02553 122.60406 34996 ft 441 kts 234°
2026-05-07 05:53 26.00552 122.57835 34571 ft 437 kts 233°
2026-05-07 05:53 25.98576 122.55296 34133 ft 433 kts 233°
2026-05-07 05:53 25.96609 122.52770 33644 ft 430 kts 233°
2026-05-07 05:54 25.94657 122.50264 33174 ft 427 kts 233°
2026-05-07 05:54 25.92724 122.47780 32720 ft 423 kts 233°
2026-05-07 05:54 25.90817 122.45325 32287 ft 419 kts 233°
2026-05-07 05:54 25.88920 122.42881 31861 ft 415 kts 233°
2026-05-07 05:55 25.87046 122.40467 31445 ft 411 kts 233°
2026-05-07 05:55 25.85191 122.38077 31025 ft 407 kts 233°
2026-05-07 05:55 25.83347 122.35703 30616 ft 404 kts 232°
2026-05-07 05:55 25.81521 122.33353 30210 ft 400 kts 232°
2026-05-07 05:56 25.79710 122.31025 29761 ft 397 kts 232°
2026-05-07 05:56 25.77914 122.28717 29300 ft 393 kts 232°
2026-05-07 05:56 25.76134 122.26431 28853 ft 390 kts 232°
2026-05-07 05:56 25.74370 122.24167 28434 ft 385 kts 232°
2026-05-07 05:57 25.72624 122.21926 28010 ft 382 kts 232°
2026-05-07 05:57 25.70898 122.19712 27597 ft 378 kts 232°
2026-05-07 05:57 25.69184 122.17514 27186 ft 375 kts 232°
2026-05-07 05:57 25.67484 122.15335 26782 ft 372 kts 232°
2026-05-07 05:58 25.65818 122.13200 26387 ft 369 kts 232°
2026-05-07 05:58 25.64141 122.11054 25979 ft 367 kts 231°
2026-05-07 05:58 25.62466 122.08887 25577 ft 364 kts 234°
2026-05-07 05:58 25.61235 122.06518 25174 ft 359 kts 251°
2026-05-07 05:59 25.60482 122.03896 24795 ft 356 kts 255°
2026-05-07 05:59 25.59821 122.01256 24384 ft 355 kts 255°
2026-05-07 05:59 25.59182 121.98620 23986 ft 354 kts 255°
2026-05-07 05:59 25.58531 121.95958 23586 ft 353 kts 255°
2026-05-07 06:00 25.57889 121.93371 23137 ft 352 kts 255°
2026-05-07 06:00 25.57234 121.90767 22712 ft 350 kts 255°
2026-05-07 06:00 25.56579 121.88184 22319 ft 347 kts 255°
2026-05-07 06:00 25.55924 121.85621 21924 ft 345 kts 254°
2026-05-07 06:01 25.55273 121.83079 21542 ft 342 kts 254°
2026-05-07 06:01 25.54625 121.80555 21162 ft 340 kts 254°
2026-05-07 06:01 25.53981 121.78046 20778 ft 337 kts 254°
2026-05-07 06:01 25.53340 121.75556 20411 ft 335 kts 254°
2026-05-07 06:02 25.52702 121.73076 20040 ft 333 kts 254°
2026-05-07 06:02 25.52068 121.70615 19669 ft 331 kts 254°
2026-05-07 06:02 25.51437 121.68168 19303 ft 330 kts 254°
2026-05-07 06:02 25.50810 121.65732 18938 ft 328 kts 254°
2026-05-07 06:03 25.50185 121.63310 18586 ft 327 kts 254°
2026-05-07 06:03 25.49560 121.60895 18189 ft 326 kts 254°
2026-05-07 06:03 25.48916 121.58499 17783 ft 324 kts 249°
2026-05-07 06:03 25.47819 121.56332 17391 ft 323 kts 233°
2026-05-07 06:04 25.46372 121.54439 17040 ft 321 kts 230°
2026-05-07 06:04 25.44894 121.52605 16675 ft 319 kts 230°
2026-05-07 06:04 25.43428 121.50772 16319 ft 317 kts 230°
2026-05-07 06:04 25.42003 121.48964 15962 ft 315 kts 231°
2026-05-07 06:05 25.40553 121.47112 15602 ft 313 kts 231°
2026-05-07 06:05 25.39152 121.45319 15252 ft 312 kts 231°
2026-05-07 06:05 25.37738 121.43513 14899 ft 311 kts 231°
2026-05-07 06:05 25.36325 121.41709 14543 ft 310 kts 231°
2026-05-07 06:06 25.34914 121.39908 14197 ft 309 kts 231°
2026-05-07 06:06 25.33513 121.38120 13856 ft 308 kts 231°
2026-05-07 06:06 25.32113 121.36332 13459 ft 307 kts 231°
2026-05-07 06:06 25.30718 121.34552 13087 ft 306 kts 231°
2026-05-07 06:07 25.29328 121.32780 12734 ft 303 kts 231°
2026-05-07 06:07 25.27949 121.31022 12410 ft 300 kts 231°
2026-05-07 06:07 25.26588 121.29287 12088 ft 298 kts 231°
2026-05-07 06:07 25.25236 121.27564 11755 ft 296 kts 231°
2026-05-07 06:08 25.23907 121.25873 11566 ft 283 kts 231°
2026-05-07 06:08 25.22647 121.24269 11337 ft 272 kts 231°
2026-05-07 06:08 25.21457 121.22755 10925 ft 269 kts 230°
2026-05-07 06:08 25.20230 121.21193 10464 ft 268 kts 230°
2026-05-07 06:09 25.19029 121.19664 10023 ft 267 kts 230°
2026-05-07 06:09 25.17817 121.18123 9574 ft 264 kts 230°
2026-05-07 06:09 25.16611 121.16589 9101 ft 263 kts 229°
2026-05-07 06:09 25.15417 121.15071 8640 ft 261 kts 229°
2026-05-07 06:10 25.14232 121.13566 8198 ft 259 kts 229°
2026-05-07 06:10 25.13056 121.12073 7777 ft 257 kts 229°
2026-05-07 06:10 25.11887 121.10589 7334 ft 255 kts 229°
2026-05-07 06:10 25.10725 121.09114 6914 ft 254 kts 229°
2026-05-07 06:11 25.09573 121.07650 6698 ft 252 kts 228°
2026-05-07 06:11 25.08421 121.06186 6475 ft 253 kts 228°
2026-05-07 06:11 25.07270 121.04724 6224 ft 252 kts 228°
2026-05-07 06:11 25.06123 121.03267 5975 ft 251 kts 228°
2026-05-07 06:12 25.04995 121.01837 5737 ft 250 kts 228°
2026-05-07 06:12 25.03840 121.00373 5488 ft 249 kts 228°
2026-05-07 06:12 25.02718 120.98949 5243 ft 249 kts 229°
2026-05-07 06:12 25.01583 120.97509 5007 ft 249 kts 229°
2026-05-07 06:13 25.00443 120.96075 4766 ft 248 kts 226°
2026-05-07 06:13 24.98944 120.95134 4499 ft 250 kts 192°
2026-05-07 06:13 24.97221 120.95225 4267 ft 252 kts 166°
2026-05-07 06:13 24.95680 120.96076 4062 ft 252 kts 144°
2026-05-07 06:14 24.94400 120.97388 4004 ft 244 kts 137°
2026-05-07 06:14 24.93265 120.98687 3981 ft 233 kts 136°
2026-05-07 06:14 24.92395 121.00159 3973 ft 233 kts 105°
2026-05-07 06:14 24.92494 121.01923 3921 ft 240 kts 68°
2026-05-07 06:15 24.93361 121.03540 3646 ft 248 kts 56°
2026-05-07 06:15 24.94390 121.05077 3352 ft 250 kts 51°
2026-05-07 06:15 24.95497 121.06528 3118 ft 245 kts 49°
2026-05-07 06:15 24.96590 121.07918 2988 ft 233 kts 49°
2026-05-07 06:16 24.97617 121.09226 2856 ft 221 kts 49°
2026-05-07 06:16 24.98605 121.10490 2596 ft 215 kts 47°
2026-05-07 06:16 24.99576 121.11733 2314 ft 212 kts 48°
2026-05-07 06:16 25.00520 121.12942 2048 ft 204 kts 48°
2026-05-07 06:17 25.01429 121.14104 1767 ft 196 kts 47°
2026-05-07 06:17 25.02292 121.15207 1552 ft 184 kts 47°
2026-05-07 06:17 25.03091 121.16229 1340 ft 168 kts 47°
2026-05-07 06:17 25.03817 121.17160 1138 ft 153 kts 47°
2026-05-07 06:18 25.04512 121.18050 938 ft 151 kts 47°
2026-05-07 06:18 25.05186 121.18915 768 ft 150 kts 46°
2026-05-07 06:18 25.05854 121.19786 574 ft 148 kts 46°
2026-05-07 06:18 25.06519 121.20636 354 ft 147 kts 45°
2026-05-07 06:19 25.07193 121.21490 156 ft 146 kts 45°
2026-05-07 06:19 25.07834 121.22297 82 ft 127 kts 46°
2026-05-07 06:19 25.08337 121.22929 72 ft 89 kts 49°
2026-05-07 06:19 25.08638 121.23326 70 ft 47 kts 56°
2026-05-07 06:20 25.08717 121.23567 72 ft 27 kts 78°
2026-05-07 06:20 25.08664 121.23664 82 ft 15 kts 207°
2026-05-07 06:20 25.08592 121.23580 79 ft 15 kts 229°
2026-05-07 06:20 25.08526 121.23496 79 ft 14 kts 229°
2026-05-07 06:21 25.08462 121.23417 82 ft 14 kts 230°
2026-05-07 06:21 25.08402 121.23339 81 ft 13 kts 229°
2026-05-07 06:21 25.08337 121.23258 80 ft 15 kts 229°
2026-05-07 06:21 25.08264 121.23165 79 ft 17 kts 229°
2026-05-07 06:22 25.08177 121.23149 82 ft 14 kts 133°
2026-05-07 06:22 25.08097 121.23257 80 ft 7 kts 140°
2026-05-07 06:22 25.08091 121.23263 79 ft 0 kts 139°